• In Hungary
  • List of Countries
  • For 7 days
  • Water Temperature
  • Satellite Maps
  • Weather Map
  • News
  • Weather Widgets
  • user-avatar
    Login

    Hourly Weather Branewka

    Today, 18 December, Monday

    Time Temperature Precipitation Wind Pressure Humidity
    00:00 -1°C° 0 mm 1 mps 743 mmHg 88%
    01:00 -1°C° 0 mm 1 mps 743 mmHg 88%
    02:00 -1°C° 0 mm 1 mps 743 mmHg 88%
    03:00 -1°C° 0 mm 1 mps 743 mmHg 88%
    04:00 -1°C° 0 mm 1 mps 744 mmHg 88%
    05:00 -1°C° 0 mm 1 mps 744 mmHg 88%
    06:00 -3°C° 0 mm 2 mps 744 mmHg 87%
    07:00 -3°C° 0 mm 2 mps 744 mmHg 86%
    08:00 -4°C° 0 mm 2 mps 744 mmHg 84%
    09:00 -3°C° 0 mm 2 mps 744 mmHg 79%
    10:00 -2°C° 0 mm 2 mps 745 mmHg 75%
    11:00 -2°C° 0 mm 3 mps 745 mmHg 71%
    12:00 -1°C° 0 mm 3 mps 745 mmHg 69%
    13:00 -1°C° 0 mm 3 mps 745 mmHg 68%
    14:00 -1°C° 0 mm 3 mps 745 mmHg 67%
    15:00 -2°C° 0 mm 3 mps 745 mmHg 71%
    16:00 -2°C° 0 mm 3 mps 745 mmHg 76%
    17:00 -4°C° 0 mm 3 mps 745 mmHg 81%
    18:00 -4°C° 0 mm 3 mps 745 mmHg 82%
    19:00 -4°C° 0 mm 3 mps 745 mmHg 84%
    20:00 -5°C° 0 mm 3 mps 746 mmHg 86%
    21:00 -5°C° 0 mm 3 mps 746 mmHg 86%
    22:00 -5°C° 0 mm 3 mps 746 mmHg 86%
    23:00 -5°C° 0 mm 3 mps 746 mmHg 86%

    Tomorrow, 19 December, Tuesday

    Time Temperature Precipitation Wind Pressure Humidity
    00:00 -5°C° 0 mm 4 mps 746 mmHg 87%
    01:00 -5°C° 0 mm 4 mps 746 mmHg 87%
    02:00 -5°C° 0 mm 4 mps 746 mmHg 88%
    03:00 -5°C° 0 mm 4 mps 746 mmHg 88%
    04:00 -5°C° 0 mm 4 mps 747 mmHg 88%
    05:00 -5°C° 0 mm 4 mps 747 mmHg 88%
    06:00 -7°C° 0 mm 4 mps 747 mmHg 88%
    07:00 -7°C° 0 mm 4 mps 747 mmHg 88%
    08:00 -7°C° 0 mm 4 mps 747 mmHg 88%
    09:00 -5°C° 0 mm 4 mps 748 mmHg 85%
    10:00 -5°C° 0 mm 4 mps 748 mmHg 83%
    11:00 -4°C° 0 mm 4 mps 748 mmHg 80%
    12:00 -4°C° 0 mm 4 mps 748 mmHg 78%
    13:00 -4°C° 0 mm 4 mps 748 mmHg 75%
    14:00 -3°C° 0 mm 4 mps 748 mmHg 72%
    15:00 -4°C° 0 mm 4 mps 748 mmHg 74%
    16:00 -4°C° 0 mm 3 mps 748 mmHg 75%
    17:00 -5°C° 0 mm 3 mps 748 mmHg 77%
    18:00 -5°C° 0 mm 3 mps 748 mmHg 78%
    19:00 -5°C° 0 mm 3 mps 748 mmHg 78%
    20:00 -5°C° 0 mm 3 mps 748 mmHg 79%
    21:00 -5°C° 0 mm 3 mps 748 mmHg 80%
    22:00 -5°C° 0 mm 3 mps 749 mmHg 81%
    23:00 -5°C° 0 mm 3 mps 749 mmHg 82%

    Day after tomorrow, 20 December, Wednesday

    Time Temperature Precipitation Wind Pressure Humidity
    00:00 -6°C° 0 mm 3 mps 748 mmHg 83%
    01:00 -6°C° 0 mm 3 mps 748 mmHg 83%
    02:00 -6°C° 0 mm 3 mps 748 mmHg 84%
    03:00 -5°C° 0 mm 3 mps 748 mmHg 84%
    04:00 -5°C° 0 mm 4 mps 748 mmHg 83%
    05:00 -5°C° 0 mm 4 mps 748 mmHg 83%
    06:00 -5°C° 0.1 mm 4 mps 748 mmHg 85%
    07:00 -5°C° 0.1 mm 4 mps 748 mmHg 86%
    08:00 -5°C° 0.1 mm 4 mps 748 mmHg 88%
    09:00 -4°C° 0.2 mm 4 mps 748 mmHg 88%
    10:00 -4°C° 0.2 mm 4 mps 748 mmHg 88%
    11:00 -4°C° 0.2 mm 4 mps 748 mmHg 88%
    12:00 -3°C° 0.3 mm 4 mps 748 mmHg 88%
    13:00 -3°C° 0.3 mm 4 mps 747 mmHg 89%
    14:00 -3°C° 0.3 mm 4 mps 747 mmHg 89%
    15:00 -3°C° 0.4 mm 4 mps 747 mmHg 90%
    16:00 -3°C° 0.4 mm 4 mps 747 mmHg 91%
    17:00 -3°C° 0.4 mm 4 mps 747 mmHg 93%
    18:00 -2°C° 0.2 mm 3 mps 747 mmHg 93%
    19:00 -2°C° 0.2 mm 3 mps 748 mmHg 93%
    20:00 -2°C° 0.2 mm 3 mps 748 mmHg 93%
    21:00 -3°C° 0.1 mm 2 mps 748 mmHg 93%
    22:00 -3°C° 0.1 mm 2 mps 748 mmHg 94%
    23:00 -3°C° 0.1 mm 2 mps 748 mmHg 94%

    21 December, Thursday

    Time Temperature Precipitation Wind Pressure Humidity
    00:00 -2°C° 0 mm 1 mps 748 mmHg 94%
    01:00 -2°C° 0 mm 1 mps 749 mmHg 94%
    02:00 -2°C° 0 mm 1 mps 749 mmHg 94%
    03:00 -2°C° 0 mm 1 mps 749 mmHg 94%
    04:00 -3°C° 0 mm 0 mps 748 mmHg 94%
    05:00 -4°C° 0 mm 0 mps 748 mmHg 94%
    06:00 -4°C° 0 mm 0 mps 748 mmHg 94%
    07:00 -3°C° 0 mm 0 mps 749 mmHg 93%
    08:00 -2°C° 0 mm 1 mps 749 mmHg 93%
    09:00 -2°C° 0 mm 1 mps 749 mmHg 91%
    10:00 -1°C° 0 mm 1 mps 749 mmHg 90%
    11:00 -3°C° 0 mm 2 mps 748 mmHg 89%
    12:00 -3°C° 0 mm 2 mps 748 mmHg 87%
    13:00 -2°C° 0 mm 3 mps 747 mmHg 86%
    14:00 -2°C° 0 mm 3 mps 747 mmHg 84%
    15:00 -2°C° 0 mm 3 mps 746 mmHg 86%
    16:00 -2°C° 0 mm 3 mps 746 mmHg 87%
    17:00 -4°C° 0 mm 3 mps 745 mmHg 89%
    18:00 -4°C° 0 mm 3 mps 745 mmHg 88%
    19:00 -4°C° 0 mm 4 mps 744 mmHg 86%
    20:00 -4°C° 0 mm 4 mps 744 mmHg 85%
    21:00 -5°C° 0.3 mm 5 mps 743 mmHg 87%
    22:00 -5°C° 0.3 mm 5 mps 743 mmHg 89%
    23:00 -5°C° 0.3 mm 6 mps 742 mmHg 90%

    22 December, Friday

    Time Temperature Precipitation Wind Pressure Humidity
    00:00 -4°C° 0.3 mm 6 mps 742 mmHg 90%
    01:00 -4°C° 0.3 mm 6 mps 742 mmHg 91%
    02:00 -3°C° 0.3 mm 6 mps 741 mmHg 91%
    03:00 -3°C° 0.3 mm 6 mps 741 mmHg 91%
    04:00 -2°C° 0.3 mm 6 mps 741 mmHg 92%
    05:00 -2°C° 0.3 mm 7 mps 741 mmHg 92%
    06:00 -2°C° 0.2 mm 6 mps 741 mmHg 91%
    07:00 -2°C° 0.2 mm 6 mps 741 mmHg 91%
    08:00 -2°C° 0.2 mm 6 mps 741 mmHg 90%
    09:00 -2°C° 0.1 mm 6 mps 741 mmHg 90%
    10:00 -2°C° 0.1 mm 6 mps 741 mmHg 91%
    11:00 -2°C° 0.1 mm 6 mps 741 mmHg 91%
    12:00 -2°C° 0.1 mm 6 mps 741 mmHg 89%
    13:00 -1°C° 0.1 mm 7 mps 740 mmHg 87%
    14:00 -1°C° 0.1 mm 7 mps 740 mmHg 85%
    15:00 -2°C° 0.1 mm 7 mps 740 mmHg 85%
    16:00 -2°C° 0.1 mm 6 mps 740 mmHg 85%
    17:00 -2°C° 0.1 mm 6 mps 739 mmHg 85%
    18:00 -2°C° 0.1 mm 6 mps 739 mmHg 86%
    19:00 -1°C° 0.1 mm 5 mps 739 mmHg 87%
    20:00 -2°C° 0.1 mm 5 mps 739 mmHg 89%
    21:00 -2°C° 0.4 mm 5 mps 739 mmHg 89%
    22:00 -2°C° 0.4 mm 5 mps 739 mmHg 90%
    23:00 -2°C° 0.4 mm 5 mps 739 mmHg 90%

    23 December, Saturday

    Time Temperature Precipitation Wind Pressure Humidity
    00:00 -2°C° 0.1 mm 5 mps 738 mmHg 90%
    01:00 -2°C° 0.1 mm 5 mps 738 mmHg 90%
    02:00 -2°C° 0.1 mm 4 mps 738 mmHg 90%
    03:00 -2°C° 0.1 mm 4 mps 738 mmHg 91%
    04:00 -2°C° 0.1 mm 3 mps 737 mmHg 92%
    05:00 -2°C° 0.1 mm 3 mps 737 mmHg 93%
    06:00 -2°C° 0.1 mm 3 mps 737 mmHg 93%
    07:00 -2°C° 0.1 mm 3 mps 737 mmHg 94%
    08:00 -4°C° 0.1 mm 3 mps 737 mmHg 94%
    09:00 -3°C° 0.2 mm 4 mps 738 mmHg 93%
    10:00 -4°C° 0.2 mm 5 mps 739 mmHg 91%
    11:00 -4°C° 0.2 mm 5 mps 740 mmHg 90%
    12:00 -4°C° 0.3 mm 5 mps 740 mmHg 89%
    13:00 -4°C° 0.3 mm 6 mps 740 mmHg 89%
    14:00 -4°C° 0.3 mm 6 mps 741 mmHg 88%
    15:00 -4°C° 0.1 mm 6 mps 741 mmHg 87%
    16:00 -4°C° 0.1 mm 5 mps 742 mmHg 87%
    17:00 -4°C° 0.1 mm 5 mps 742 mmHg 87%
    18:00 -5°C° 0 mm 5 mps 743 mmHg 88%
    19:00 -4°C° 0 mm 4 mps 743 mmHg 89%
    20:00 -4°C° 0 mm 4 mps 744 mmHg 91%
    21:00 -5°C° 0 mm 4 mps 744 mmHg 91%
    22:00 -5°C° 0 mm 4 mps 745 mmHg 92%
    23:00 -5°C° 0 mm 4 mps 745 mmHg 93%
    Show more